EHI
0 0 0 0 0 0 0 0 0 0 0 0 0 0 0 0 0 0 0 0 0 0 0 0 0 0 0 0 0 0 0 0 0 0 0 0 0 0 0 0 0 0 0 0
0 0 0 0 0 0 0 0 0 0 0 0 0 0 0 0 0 0 0 0 0 0 0 0 0 0 0 0 0 0 0 0 0 0 0 0 0 0 0 0 0 0 0 0
0 0 0 0 0 0 0 0 0 0 0 0 0 0 0 0 0 0 0 0 0 0 0 0 0 0 0 0 0 0 0 0 0 0 0 0 0 0 0 0 0 0 0 0
0 0 0 0 0 0 0 0 0 0 0 0 0 0 0 0 0 0 0 0 0 0 0 0 0 0 0 0 0 0 0 0 0 0 0 0 0 0 0 0 0 0 0 0
0 0 0 0 0 0 0 0 0 0 0 0 0 0 0 0 0 0 0 0 0 0 0 0 0 0 0 0 0 0 0 0 0 0 0 0 0 0 0 0 0 0 0 0
0 0 0 0 0 0 0 0 0 0 0 0 0 0 0 0 0 0 0 0 0 0 0 0 0 0 0 0 0 0 0 0 0 0 0 0 0 0 0 0 0 0 0 0
0 0 0 0 0 0 0 0 0 0 0 0 0 0 0 0 0 0 0 0 0 0 0 0 0 0 0 0 0 0 0 0 0 0 0 0 0 0 0 0 0 0 0 0
0 0 0 0 0 0 0 0 0 0 0 0 0 0 0 0 0 0 0 0 0 0 0 0 0 0 0 0 0 0 0 0 0 0 0 0 0 0 0 0 0 0 0 0
0 0 0 0 0 0 0 0 0 0 0 0 0 0 0 0 0 0 0 0 0 0 0 0 0 0 0 0 0 0 0 0 0 0 0 0 0 0 0 0 0 0 0 0
0 0 0 0 0 0 0 0 0 0 0 0 0 0 0 0 0 0 0 0 0 0 0 0 0 0 0 0 0 0 0 0 0 0 0 0 0 0 0 0 0 0 0 0
0 0 0 0 0 0 0 0 0 0 0 0 0 0 0 0 0 0 0 0 0 0 0 0 0 0 0 0 0 0 0 0 0 0 0 0 0 0 0 0 0 0 0 0
0 0 0 0 0 0 0 0 0 0 0 0 0 0 0 0 0 0 0 0 0 0 0 0 0 0 0 0 0 0 0 0 0 0 0 0 0 0 0 0 0 0 0 0
0 0 0 0 0 0 0 0 0 0 0 0 0 0 0 0 0 0 0 0 0 0 0 0 0 0 0 0 0 0 0 0 0 0 0 0 0 0 0 0 0 0 0 0
0 0 0 0 0 0 0 0 0 0 0 0 0 0 0 0 0 0 0 0 0 0 0 0 0 0 0 0 0 0 0 0 0 0 0 0 0 0 0 0 0 0 0 0
0 0 0 0 0 0 0 0 0 0 0 0 0 0 0 0 0 0 0 0 0 0 0 0 0 0 0 0 0 0 0 0 0 0 0 0 0 0 0 0 0 0 0 0
0 0 0 0 0 0 0 0 0 0 0 0 0 0 0 0 0 0 0 0 0 0 0 0 0 0 0 0 0 0 0 0 0 0 0 0 0 0 0 0 0 0 0 0
0 0 0 0 0 0 0 0 0 0 0 0 0 0 0 0 0 0 0 0 0 0 0 0 0 0 0 0 0 0 0 0 0 0 0 0 0 0 0 0 0 0 0 0
0 0 0 0 0 0 0 0 0 0 0 0 0 0 0 0 0 0 0 0 0 0 0 0 0 0 0 0 0 0 0 0 0 0 0 0 0 0 0 0 0 0 0 0
0 0 0 0 0 0 0 0 0 0 0 0 0 0 0 0 0 0 0 0 0 0 0 0 0 0 0 0 0 0 0 0 0 0 0 0 0 0 0 0 0 0 0 0
0 0 0 0 0 0 0 0 0 0 0 0 0 0 0 0 0 0 0 0 0 0 0 0 0 0 0 0 0 0 0 0 0 0 0 0 0 0 0 0 0 0 0 0
0 0 0 0 0 0 0 0 0 0 0 0 0 0 0 0 0 0 0 0 0 0 0 0 0 0 0 0 0 0 0 0 0 0 0 0 0 0 0 0 0 0 0 0
0 0 0 0 0 0 0 0 0 0 0 0 0 0 0 0 0 0 0 0 0 0 0 0 0 0 0 0 0 0 0 0 0 0 0 0 0 0 0 0 0 0 0 0
0 0 0 0 0 0 0 0 0 0 0 0 0 0 0 0 0 0 0 0 0 0 0 0 0 0 0 0 0 0 0 0 0 0 0 0 0 0 0 0 0 0 0 0
0 0 0 0 0 0 0 0 0 0 0 0 0 0 0 0 0 0 0 0 0 0 0 0 0 0 0 0 0 0 0 0 0 0 0 0 0 0 0 0 0 0 0 0
0 0 0 0 0 0 0 0 0 0 0 0 0 0 0 0 0 0 0 0 0 0 0 0 0 0 0 0 0 0 0 0 0 0 0 0 0 0 0 0 0 0 0 0
0 0 0 0 0 0 0 0 0 0 0 0 0 0 0 0 0 0 0 0 0 0 0 0 0 0 0 0 0 0 0 0 0 0 0 0 0 0 0 0 0 0 0 0
Wind_Speed
6 8 4 2 2 3 2 3 3 3 2 3 5 6 7 5 6 7 6 5 5 5 4 3 2 2 4 6 7 6 7 7 7 7 8 8 9 8 7 7 9 10 11 12
8 5 3 3 2 3 3 4 2 1 1 1 2 4 4 4 6 7 7 6 5 4 4 2 2 4 5 4 5 5 6 7 7 5 5 5 6 5 6 6 7 8 10 11
6 2 4 4 7 6 4 2 2 3 1 1 2 1 4 2 2 3 4 5 4 5 4 2 2 3 2 3 5 7 6 7 7 7 5 7 5 4 5 6 6 8 10 10
4 4 5 5 4 3 1 2 2 3 2 2 2 4 4 5 3 3 3 4 4 4 3 2 1 1 1 3 4 5 6 6 6 6 6 9 9 8 8 7 7 9 9 10
3 3 5 4 2 1 3 2 2 2 2 1 1 2 4 4 5 5 4 4 4 4 3 2 1 1 2 4 5 5 6 6 6 6 7 7 7 6 7 8 9 8 7 8
1 1 1 2 3 2 2 3 2 4 3 3 4 5 6 5 6 5 5 5 5 4 3 2 2 3 4 5 5 6 6 6 6 7 7 8 9 9 11 11 9 9 7 7
2 2 3 3 3 6 6 6 6 6 5 6 2 4 5 3 4 7 8 6 5 3 2 3 4 5 6 6 7 6 7 7 7 7 8 8 8 8 10 11 10 11 9 9
1 3 2 3 1 2 3 4 4 2 5 7 4 4 4 4 3 5 7 6 5 3 3 4 4 4 5 7 7 7 7 7 8 8 8 8 8 7 7 9 10 11 10 10
2 3 1 0 1 1 2 2 4 4 2 5 7 5 2 2 3 5 6 5 4 3 3 4 4 5 6 6 7 7 8 8 8 9 9 8 8 9 9 9 9 9 10 11
1 2 3 1 1 0 2 4 4 2 2 6 8 6 5 8 8 6 6 5 4 3 3 4 4 5 5 5 6 7 7 8 8 9 8 12 10 10 10 10 11 11 12 12
1 1 3 2 2 1 1 1 3 3 3 3 6 9 4 9 9 8 7 5 4 3 3 3 4 4 5 6 6 7 7 8 9 9 9 10 10 10 10 10 11 11 11 13
2 3 3 4 2 1 1 2 4 2 3 3 4 10 2 5 6 8 7 6 5 4 2 2 3 4 5 6 7 8 8 9 9 9 9 10 10 10 10 11 12 12 12 12
1 3 3 6 3 1 2 3 4 4 2 3 4 9 3 5 6 7 8 6 4 3 1 2 3 5 6 7 8 8 9 9 9 9 9 10 10 10 11 11 12 12 12 13
3 2 4 5 6 3 4 4 5 5 4 5 9 8 4 6 7 6 6 6 4 2 0 2 4 5 6 7 7 8 9 9 10 9 9 10 11 11 11 11 12 12 12 12
3 2 4 7 5 3 6 7 7 9 8 9 10 7 7 10 11 9 7 6 4 2 1 3 5 5 6 7 7 8 8 8 9 9 10 11 11 11 11 11 11 12 12 14
2 1 3 5 3 4 6 8 7 8 7 9 10 10 2 7 7 7 7 6 4 2 1 3 4 6 6 7 7 8 8 8 8 9 10 11 11 11 11 11 11 12 13 13
2 1 1 5 7 6 8 6 8 7 9 9 9 7 9 6 10 10 8 6 5 3 2 3 3 4 5 6 7 7 8 8 8 9 10 11 11 11 11 12 12 12 11 12
5 3 1 3 7 5 7 2 6 7 8 9 6 6 10 8 7 5 6 7 6 4 2 1 2 4 4 5 6 6 7 7 8 8 9 10 10 10 10 10 10 10 8 9
2 5 3 1 3 12 9 4 5 5 9 7 8 8 8 11 7 2 5 6 6 4 3 1 1 2 4 5 6 6 6 7 8 9 10 10 9 10 10 10 10 8 7 7
4 4 4 3 2 8 7 2 2 3 8 5 10 13 12 11 5 6 9 7 6 5 3 2 0 2 3 5 5 6 7 7 8 10 10 10 9 9 9 9 8 7 7 8
2 2 3 5 6 14 6 5 5 3 8 5 10 13 15 11 6 8 11 7 6 5 4 2 1 2 3 4 5 5 6 8 9 9 9 9 9 9 8 8 7 7 8 8
9 7 7 5 5 14 6 9 11 11 3 6 8 9 9 7 9 11 10 8 7 6 4 3 2 2 3 4 4 5 6 7 8 8 8 9 8 8 9 8 8 7 6 6
9 11 9 13 13 6 11 11 7 6 7 7 8 7 11 11 9 10 9 8 7 6 4 3 2 2 3 4 3 4 6 7 7 8 8 8 8 7 7 6 7 7 6 4
6 5 5 8 14 9 10 7 5 7 7 8 8 11 11 11 11 10 10 8 7 6 4 3 2 2 2 4 4 4 6 6 6 7 8 7 6 7 6 6 6 6 6 5
8 8 5 9 11 6 7 10 9 7 7 8 8 8 11 14 11 10 10 9 7 6 4 4 3 1 1 3 4 5 5 6 6 7 7 7 7 7 6 6 6 7 5 9
10 12 11 13 11 9 8 8 12 12 11 13 11 9 8 11 13 11 10 8 7 6 5 4 3 1 1 2 4 5 5 5 5 6 6 5 5 6 6 6 7 12 13 16
Wind_Direction
27 61 51 319 269 228 220 142 166 212 203 176 184 178 192 168 139 151 165 166 153 144 140 122 96 69 42 25 12 2 351 346 350 351 352 348 346 341 340 340 340 340 340 339
46 45 304 306 8 56 84 108 143 229 258 164 158 195 197 177 171 172 170 166 150 134 137 134 63 43 34 8 349 353 351 346 347 343 334 330 325 319 325 320 323 330 336 335
102 309 320 59 38 48 51 102 188 208 209 79 126 227 188 207 168 159 134 139 139 135 136 129 50 43 10 345 345 359 346 341 338 335 333 335 322 315 326 325 328 332 331 330
70 3 39 60 47 46 304 213 203 151 142 274 161 290 213 194 193 173 136 130 126 120 127 120 62 34 353 341 347 348 339 334 332 336 341 343 345 334 330 325 320 321 322 323
46 18 38 34 333 316 264 246 224 167 171 316 236 241 282 163 208 203 177 157 146 144 135 115 100 66 18 358 348 339 333 328 328 334 334 331 328 319 320 322 320 317 316 317
74 12 70 307 294 280 313 44 63 56 75 307 218 182 258 206 209 177 167 158 156 149 131 104 55 31 5 351 342 336 333 326 328 332 330 326 324 321 325 327 323 325 321 318
11 346 3 5 359 7 40 54 20 357 359 273 223 193 252 211 184 163 162 165 161 147 120 52 30 9 351 344 338 334 333 331 333 333 330 325 322 319 321 325 326 326 325 323
197 296 325 18 66 343 5 100 121 267 271 292 319 254 251 213 179 133 139 148 144 123 74 50 29 3 347 341 338 337 338 337 336 335 329 321 319 320 319 319 322 322 322 318
143 266 288 292 23 114 75 106 156 151 291 285 284 279 281 216 183 142 140 136 133 105 68 46 19 2 349 342 340 338 339 338 335 331 324 321 321 317 315 315 315 318 318 319
137 282 293 288 14 292 137 142 92 115 300 294 292 280 241 201 207 178 162 154 142 107 64 37 11 353 344 339 335 337 339 334 326 324 321 336 324 316 316 318 319 319 317 316
133 179 305 334 228 239 148 173 135 134 174 216 288 278 230 189 179 170 167 160 149 121 74 24 351 340 338 339 341 340 338 333 329 326 322 323 320 319 319 319 319 317 315 317
76 118 281 266 209 175 235 204 153 173 259 207 240 276 75 142 142 144 149 149 143 120 89 10 339 340 345 347 345 343 337 333 330 328 328 327 323 322 322 321 320 318 318 318
101 115 355 345 334 227 221 200 160 135 138 209 229 266 105 109 114 136 145 149 143 127 91 342 347 351 349 347 344 339 334 332 331 334 333 329 327 326 324 322 321 321 322 321
104 144 188 231 250 248 235 210 174 146 193 235 234 251 187 171 152 155 156 156 156 159 92 360 360 353 347 343 337 332 331 332 340 338 333 330 329 326 324 323 323 325 325 325
107 217 255 263 277 265 244 229 201 195 201 217 245 241 229 186 171 168 165 167 168 175 28 16 5 351 344 340 334 331 330 333 336 335 335 332 329 327 327 327 328 331 334 337
111 213 314 295 329 309 271 247 221 221 219 236 261 269 172 125 127 149 167 174 176 170 53 19 2 351 342 336 332 333 332 333 333 333 332 330 333 333 332 332 338 339 340 338
145 106 358 291 317 340 296 243 193 213 215 205 227 226 145 152 170 174 179 181 175 150 84 22 352 335 327 326 328 331 330 328 333 332 330 331 332 334 335 340 342 341 338 339
143 119 108 317 355 290 253 182 194 220 243 217 217 169 168 154 144 151 168 173 169 146 123 13 331 323 321 324 328 326 326 330 332 331 330 331 333 333 334 339 341 336 333 338
108 136 123 89 303 281 291 231 199 213 274 213 181 147 123 119 107 186 196 174 165 152 148 173 268 293 322 332 331 332 333 334 335 337 335 333 334 334 337 341 339 334 332 336
61 87 120 140 228 256 255 165 134 84 279 217 159 154 153 152 174 215 179 163 152 146 143 149 292 341 348 336 336 342 339 340 342 339 334 333 336 334 336 339 335 333 333 343
122 107 163 184 235 264 249 155 135 196 259 166 156 159 165 186 188 151 147 152 153 146 144 138 90 24 345 334 346 348 340 340 332 330 331 334 336 333 340 336 332 332 339 340
177 172 192 163 214 259 189 148 191 215 142 140 149 153 153 143 125 136 147 153 153 149 152 145 102 29 347 348 355 346 337 324 324 328 332 332 332 337 349 331 329 331 331 330
198 192 184 192 220 237 175 198 204 153 158 163 153 147 137 140 151 155 156 158 158 160 165 157 122 51 358 352 352 339 320 320 327 330 329 325 328 329 332 326 327 332 335 331
243 182 191 245 262 245 218 226 192 177 168 161 148 147 152 153 158 159 160 162 163 167 168 158 125 69 0 341 339 320 312 320 326 327 324 324 327 329 326 332 338 336 336 336
220 175 213 254 269 286 251 215 188 164 143 138 137 150 157 151 157 164 164 167 169 168 167 158 144 126 332 329 329 322 319 322 326 321 319 323 332 325 325 335 334 339 326 349
194 183 191 231 226 204 234 200 167 157 162 157 147 146 155 159 161 161 166 166 165 167 166 164 161 159 299 321 320 316 315 317 322 326 324 318 324 327 329 323 328 342 349 351